JCSAT-12 (JCSAT-RA)

Last updated on Thu Nov 21 2024 00:02:41 GMT+0000 (Coordinated Universal Time)

1 35755U 09044A 24325.57616492 -.00000326 00000+0 00000+0 0 9998 2 35755 0.0690 95.8020 0000461 93.2010 210.5459 1.00271328 55855
UTC large
Height (km)
Speed (km/s)
/
Latitude / Longitude
Inclination (degrees)
Orbital Period (minutes)
Azimuth
Elevation
Range (km)
Doppler Factor

Next 0 passes for location: London (51.5072 / 0.1276)

Sorry there are no passes over London.